This is the latest recevied weather packets stored in our database for station/object KE4LOJ. If no packets are shown the sender has not sent any weather packets the latest 10 day(s).
| Time | Temp. | Humidity | Pressure | Rain* | Wind** | Luminosity | Snow |
|---|---|---|---|---|---|---|---|
| 1777832427 | 24.44° C | 61% | 1018.3 hPa | 0 mm | - | 251 W/m² | - |
| 1777832124 | 25° C | 58% | 1018.5 hPa | 0 mm | - | 931 W/m² | - |
| 1777831820 | 25° C | 60% | 1018.4 hPa | 0 mm | - | 947 W/m² | - |
| 1777831518 | 23.89° C | 60% | 1018.3 hPa | 0 mm | - | 951 W/m² | - |
| 1777831214 | 24.44° C | 61% | 1018.3 hPa | 0 mm | - | 1014 W/m² | - |
| 1777830912 | 25° C | 60% | 1018.3 hPa | 0 mm | - | 963 W/m² | - |
| 1777830609 | 25° C | 60% | 1018.5 hPa | 0 mm | - | 945 W/m² | - |
| 1777830306 | 24.44° C | 61% | 1018.2 hPa | 0 mm | - | 917 W/m² | - |
| 1777830002 | 23.89° C | 62% | 1018.4 hPa | 0 mm | - | 890 W/m² | - |
| 1777829697 | 23.89° C | 62% | 1018.8 hPa | 0 mm | - | 918 W/m² | - |
| 1777829394 | 23.89° C | 61% | 1018.6 hPa | 0 mm | - | 939 W/m² | - |
| 1777829092 | 23.89° C | 65% | 1018.7 hPa | 0 mm | - | 921 W/m² | - |
| 1777828788 | 24.44° C | 63% | 1018.5 hPa | 0 mm | - | 919 W/m² | - |
| 1777828485 | 23.89° C | 63% | 1018.7 hPa | 0 mm | - | 516 W/m² | - |
| 1777828183 | 23.89° C | 64% | 1018.9 hPa | 0 mm | - | 572 W/m² | - |
| 1777827878 | 23.89° C | 65% | 1018.9 hPa | 0 mm | - | 898 W/m² | - |
| 1777827576 | 23.33° C | 65% | 1018.6 hPa | 0 mm | - | 1062 W/m² | - |
| 1777827273 | 23.33° C | 65% | 1018.9 hPa | 0 mm | - | 907 W/m² | - |
| 1777826969 | 23.89° C | 65% | 1018.8 hPa | 0 mm | - | 875 W/m² | - |
| 1777826667 | 23.33° C | 68% | 1019 hPa | 0 mm | - | 1042 W/m² | - |
| 1777826363 | 23.33° C | 66% | 1019 hPa | 0 mm | - | 563 W/m² | - |
| 1777826061 | 23.33° C | 66% | 1019.1 hPa | 0 mm | - | 757 W/m² | - |
| 1777825757 | 23.33° C | 67% | 1019 hPa | 0 mm | - | 454 W/m² | - |
| 1777825455 | 22.78° C | 69% | 1019 hPa | 0 mm | - | 348 W/m² | - |
| 1777825152 | 22.22° C | 70% | 1019.2 hPa | 0 mm | - | 966 W/m² | - |
* Rain latest hour (hover to see other rain measurements)
** Current wind speed in m/s (hover to see current wind gust speed)